Location: Campavaglio
(41.1333°N, 9.2333°E)
Time: 12:34:42
(UTC+00:00)

Cosmos 2366 rocket - Pass Details

Date: 07 June 2020
Orbit: 955 x 997 km, 82.9° (Epoch: 11 July)

Event Time Altitude Azimuth Distance (km) Brightness Sun altitude
Exits shadow 02:17:31 11° 182° (S) 2,648 5.8 -14.2°
Maximum altitude 02:23:34 83° 96° (E) 994 4.1 -13.5°
Drops below altitude 10° 02:29:55 10° 9° (N) 2,758 7.2 -12.6°
Sets 02:32:27 0° 9° (N) 3,715 8.0 -12.3°
